SCP
0 0 0 0 0 0 0 0 0 0 0 0 0 0 0 0 0 0 0 0 0 0 0 0 0 0 0 0 0 0 0 0 0 0 0 0 0 0 0 0 0 0 0 0 0 0 0 0 0 0 0 0 0 0
0 0 -0 0 0 0 0 0 0 0 0 0 0 0 0 0 0 0 0 0 0 0 0 0 0 0 0 0 0 0 0 0 0 0 0 0 0 0 0 0 0 0 0 0 0 0 0 0 0 0 0 0 0 0
0 0 0 -0 0 0 -0 -0 0 0 0 0 0 0 0 0 0 0 0 0 0 0 0 0 0 0 0 0 0 0 0 0 0 0 0 0 0 0 0 0 0 0 0 0 0 0 0 0 0 0 0 0 0 0
0 0 0 0 0 0 0 0 0 0 0 0 0 0 0 0 0 0 0 0 0 0 0 0 0 0 0 0 0 0 0 0 0 0 0 0 0 0 0 0 0 0 0 0 0 0 0 0 0 0 0 0 0 0
0 0 0 0 0 0 0 0 0 0 0 0 0 0 0 0 0 0 0 0 0 0 0 0 0 0 0 0 0 0 0 0 0 0 0 0 0 0 0 0 0 0 0 0 0 0 0 0 0 0 0 0 0 0
0 0 0 0 0 0 0 0 0 0 0 0 0 0 0 -0 0 0 0 0 0 0 0 0 0 0 0 0 0 0 0 0 0 0 0 0 0 0 0 0 0 0 0 0 0 0 0 0 0 0 0 0 0 0
0 0 0 0 0 0 0 0 0 0 0 0 0 0 0 0 0 0 0 0 0 0 0 0 0 0 0 0 0 0 0 0 0 0 0 0 0 0 0 0 0 0 0 0 0 0 0 0 0 0 0 0 0 0
0 0 0 0 0 0 0 0 0 0 0 0 0 0 0 0 0 0 0 0 0 0 0 0 0 0 0 0 0 0 0 0 0 0 0 0 0 0 0 0 0 0 0 0 0 0 0 0 0 0 0 0 0 0
0 0 0 0 0 0 0 0 0 0 0 0 0 0 0 0 0 0 0 0 0 0 0 0 0 0 0 0 0 0 0 0 0 0 0 0 0 0 0 0 0 0 0 0 0 0 0 0 0 0 0 0 0 0
0 0 0 0 0 0 0 0 0 0 0 0 0 0 0 0 0 0 0 0 0 0 0 0 0 0 0 0 0 0 0 0 0 0 0 0 0 0 0 0 0 0 0 0 0 0 0 0 0 0 0 0 0 0
0 0 0 0 0 0 0 0 0 0 0 0 0 0 0 0 0 0 0 0 0 0 0 0 0 0 0 0 0 0 0 0 0 0 0 0 0 0 0 0 0 0 0 0 0 0 0 0 0 0 0 0 0 0
0 0 0 0 0 0 0 0 0 0 0 0 0 0 0 0 0 0 0 0 0 0 0 0 0 0 0 0 0 0 0 0 0 0 0 0 0 0 0 0 0 0 0 0 0 0 0 0 0 0 0 0 0 0
0 0 0 0 0 -0 0 0 0 0 0 0 0 0 0 0 0 0 0 0 0 0 0 0 0 0 0 0 0 0 0 0 0 0 0 0 0 0 0 0 0 0 0 0 0 0 0 0 0 0 0 0 0 0
0 0 0 0 0 0 -0 0 0 0 0 0 0 0 0 0 0 0 0 0 0 0 0 0 0 0 0 0 0 0 0 0 0 0 0 0 0 0 0 0 0 0 0 0 0 0 0 0 0 0 0 0 0 0
0 0 0 0 0 0 0 -0 0 0 0 0 0 0 0 0 0 0 0 0 0 0 0 0 0 0 0 0 0 0 0 0 0 0 0 0 0 0 0 0 0 0 0 0 0 0 0 0 0 0 0 0 0 0
0 0 0 0 0 0 -0 0 0 0 0 0 0 0 0 0 0 0 0 0 0 0 0 0 0 0 0 0 0 0 0 0 0 0 0 0 0 0 0 0 0 0 0 0 0 0 0 0 0 0 0 0 0 0
-0 0 0 0 0 0 0 0 0 0 0 0 0 0 0 0 0 0 0 0 0 0 0 0 0 0 0 0 0 0 0 0 0 0 0 0 0 0 0 0 0 0 0 0 0 0 0 0 0 0 0 0 0 0
0 0 0 0 0 0 0 0 0 0 0 0 0 0 0 0 0 0 0 0 0 0 0 0 0 0 0 0 0 0 0 0 0 0 0 0 0 0 0 0 0 0 0 0 0 0 0 0 0 0 0 0 0 0
-0 -0 0 0 0 0 0 0 0 0 0 0 0 0 0 0 0 0 0 0 0 0 0 0 0 0 0 0 0 0 0 0 0 0 0 0 0 0 0 0 0 0 0 0 0 0 0 0 0 0 0 0 0 0
-0 -0 0 0 0 0 0 0 0 0 0 0 0 0 0 0 0 0 0 0 0 0 0 0 0 0 0 0 0 0 0 0 0 0 0 0 0 0 0 0 0 0 0 0 0 0 0 0 0 0 0 0 0 0
-0 0 0 0 0 0 0 0 0 0 0 0 0 0 0 0 0 0 0 0 0 0 0 0 0 0 0 0 0 0 0 0 0 0 0 0 0 0 0 0 0 0 0 0 0 0 0 0 0 0 0 0 0 0
0 0 0 0 0 0 0 0 0 0 0 0 0 0 0 0 0 0 0 0 0 0 0 0 0 0 0 0 0 0 0 0 0 0 0 0 0 0 0 0 0 0 0 0 0 0 0 0 0 0 0 0 0 0
0 0 0 0 0 0 0 0 0 0 0 0 0 0 0 0 0 0 0 0 0 0 0 0 0 0 0 0 0 0 0 0 0 0 0 0 0 0 0 0 0 0 0 0 0 0 0 0 0 0 0 0 0 0
0 0 0 0 0 0 0 0 0 0 0 0 0 0 0 0 0 0 0 0 0 0 0 0 0 0 0 0 0 0 0 0 0 0 0 0 0 0 0 0 0 0 0 0 0 0 0 0 0 0 0 0 0 0
0 0 0 0 0 0 0 0 0 0 0 0 0 0 0 0 0 0 0 0 0 0 0 0 0 0 0 0 0 0 0 0 0 0 0 0 0 0 0 0 0 0 0 0 0 0 0 0 0 0 0 0 0 0
0 0 0 0 0 0 0 0 0 0 0 0 0 0 0 0 0 0 0 0 0 0 0 0 0 0 0 0 0 0 0 0 0 0 0 0 0 0 0 0 0 0 0 0 0 0 0 0 0 0 0 0 0 0
0 0 0 0 0 0 0 0 0 0 0 0 0 0 0 0 0 0 0 0 0 0 0 0 0 0 0 0 0 0 0 0 0 0 0 0 0 0 0 0 0 0 0 0 0 0 0 0 0 0 0 0 0 0
0 0 0 0 0 0 0 0 0 0 0 0 0 0 0 0 0 0 0 0 0 0 0 -0 0 0 0 0 0 0 0 0 0 0 0 0 0 0 0 0 0 0 0 0 0 0 0 0 0 0 0 0 0 0
0 0 0 0 0 0 0 0 0 0 0 0 0 0 0 0 0 0 0 0 0 -0 0 0 0 0 0 0 0 0 0 0 0 0 0 0 0 0 0 0 0 0 0 0 0 0 0 0 0 0 0 0 0 0
0 0 0 0 0 0 0 0 0 0 0 0 0 0 0 0 0 0 0 0 -0 0 -0 -0 -0 0 0 0 0 0 0 0 0 0 0 0 0 0 0 0 0 0 0 0 0 0 0 0 0 0 0 0 0 0
0 0 0 0 0 0 0 0 0 0 0 0 0 0 0 0 0 0 0 0 0 0 0 0 -0 -0 0 0 0 0 0 0 0 0 0 0 0 0 0 0 0 0 0 0 0 0 0 0 0 0 0 0 0 0
0 0 0 0 0 0 0 0 0 0 0 0 0 0 0 0 0 0 0 0 0 0 0 0 -0 -0 -0 0 0 0 0 -0 -0 -0 -0 0 0 0 0 0 0 0 0 0 0 0 0 0 0 0 0 0 0 0
0 0 0 0 0 0 0 0 0 0 0 0 0 0 0 0 0 0 0 0 0 0 0 0 0 0 -0 -0 -0 -0 0 0 -0 -0 0 -0 -0 0 0 0 0 0 0 0 0 0 0 0 0 0 0 0 0 0
Wind_Speed_500mb
76 75 77 76 53 46 50 52 52 94 123 87 87 92 90 85 83 92 84 64 52 32 23 30 30 17 22 22 13 27 17 7 8 13 12 11 11 15 8 14 17 22 24 13 15 16 23 31 18 14 5 10 17 19
73 76 79 77 79 50 39 58 60 76 114 87 101 93 87 86 81 83 63 60 66 33 15 38 38 35 41 42 33 53 1 17 26 10 10 6 6 7 5 10 14 12 10 15 24 16 6 41 8 17 15 18 14 14
67 67 70 76 74 75 65 25 60 68 107 87 111 86 80 77 70 89 70 60 52 30 21 35 29 45 39 29 29 24 13 20 20 12 12 4 8 10 12 12 10 12 6 5 6 10 13 26 20 18 17 18 17 13
63 63 62 63 66 68 66 61 29 32 70 87 84 63 67 70 72 59 64 57 57 19 9 14 44 45 31 41 36 31 18 39 25 22 7 5 5 13 5 3 10 4 24 13 8 7 5 16 28 26 20 15 14 12
55 56 57 54 50 52 54 48 38 32 26 31 38 44 49 47 54 51 50 55 62 36 7 5 17 30 39 52 49 41 25 27 22 9 5 7 7 7 3 0 10 18 11 12 10 11 4 9 29 27 23 19 14 11
54 49 47 47 43 37 33 31 30 17 13 12 16 25 29 40 49 46 22 52 56 66 8 8 10 22 40 34 47 59 44 34 24 16 9 12 13 14 6 12 6 38 29 29 6 11 11 19 22 22 21 17 15 15
50 51 44 39 36 31 26 22 13 7 14 17 8 15 22 33 40 31 10 11 52 63 12 8 7 10 26 28 26 28 36 15 21 14 17 13 12 28 5 15 16 22 26 21 17 18 13 19 14 21 21 19 15 13
51 46 45 41 32 26 18 13 13 8 6 7 4 8 12 15 19 11 13 11 35 30 15 5 5 6 22 11 9 19 17 23 16 10 9 8 15 15 12 7 22 24 22 18 18 21 15 21 22 21 17 14 13 11
53 46 42 41 37 30 24 15 11 8 5 3 10 16 14 5 2 8 16 18 23 9 7 5 10 7 22 7 10 13 16 7 15 7 10 18 8 12 1 10 23 23 15 22 19 15 16 17 18 18 17 15 14 12
56 47 48 41 38 36 30 25 19 13 13 17 22 10 8 13 23 16 11 3 3 5 6 5 9 6 13 15 8 9 6 3 7 5 13 8 7 11 7 14 22 19 19 22 24 16 19 19 20 20 20 19 18 16
52 35 40 40 36 38 37 35 27 22 24 20 13 7 11 27 16 11 6 4 2 4 9 5 16 9 15 6 6 7 5 5 5 6 8 8 7 8 15 18 21 25 26 25 18 16 21 18 21 20 19 17 13 11
34 31 35 39 47 50 44 39 41 36 28 20 17 18 19 12 6 7 7 3 8 8 7 6 6 7 10 9 5 8 7 6 7 4 5 6 5 18 20 21 22 21 20 19 16 15 16 17 17 15 13 12 12 12
35 39 44 49 47 49 52 40 46 47 42 36 15 11 13 10 12 12 14 8 6 11 12 10 6 7 7 6 7 4 10 5 6 6 6 3 13 17 21 22 21 20 18 16 16 14 13 13 12 12 12 12 12 12
43 40 44 45 46 47 54 54 52 47 46 23 19 15 11 9 9 6 5 7 7 9 20 17 11 3 4 4 2 5 4 3 5 6 6 4 18 24 24 22 19 19 17 15 14 13 12 11 10 10 11 13 14 14
48 48 47 49 46 46 55 61 55 49 25 13 14 14 9 9 9 8 15 15 11 23 21 15 10 5 4 6 4 7 5 6 6 2 4 11 24 28 25 21 17 15 13 11 9 8 9 9 11 12 14 15 15 14
49 47 44 42 40 39 29 21 20 10 6 7 9 9 8 8 6 5 7 12 23 26 16 9 5 5 4 3 7 8 8 9 5 5 9 25 31 26 23 19 15 11 9 8 8 8 10 11 13 14 14 15 15 16
35 33 25 17 21 19 24 14 9 9 11 9 7 17 14 16 13 8 6 8 26 13 5 5 8 4 7 5 6 3 2 5 9 13 19 24 28 24 19 13 10 8 7 7 9 11 13 15 16 17 17 18 19 21
12 15 14 27 13 13 15 7 9 10 14 15 3 9 15 13 9 16 10 13 9 5 4 5 11 6 8 12 7 6 9 13 18 20 23 23 19 15 11 8 6 6 7 9 12 14 16 17 19 19 21 24 27 30
14 6 20 18 15 9 7 10 11 11 13 12 11 14 17 19 22 18 17 13 16 17 13 4 3 3 4 6 7 14 19 15 17 22 20 15 10 6 5 5 5 7 8 10 12 15 18 20 22 25 29 34 38 40
9 3 3 4 10 7 10 13 12 13 8 6 10 9 11 13 15 22 23 20 17 10 16 9 6 6 7 9 17 24 23 27 25 20 12 8 7 5 5 5 5 6 8 11 14 16 19 22 26 31 37 42 47 52
22 19 11 4 9 17 15 10 14 10 11 11 11 7 9 14 13 16 17 16 15 11 7 8 12 21 24 25 24 25 23 19 15 10 11 6 7 7 6 4 6 10 13 16 18 22 27 32 35 41 48 56 61 67
14 13 9 13 11 11 16 16 13 9 8 8 8 10 11 8 11 13 13 18 11 7 8 17 21 23 21 20 19 19 19 17 15 14 11 9 5 4 5 8 11 13 15 19 26 33 39 44 50 54 59 64 65 67
3 6 10 12 11 13 7 10 7 8 5 5 5 7 7 6 5 8 10 9 9 10 19 22 22 21 21 21 22 22 21 18 15 12 8 4 1 2 6 11 16 21 29 35 42 50 56 56 56 55 54 54 54 56
6 9 13 13 17 6 6 10 9 8 8 6 5 6 5 6 7 8 7 6 7 12 17 21 23 22 21 19 17 15 12 9 7 4 3 5 8 12 17 24 31 37 43 50 55 56 54 48 46 49 50 52 53 55
8 23 14 12 16 7 9 6 6 6 6 5 4 5 3 5 4 6 4 5 10 15 19 20 18 17 17 14 11 8 6 4 4 6 10 15 22 30 37 42 48 51 49 50 47 45 47 48 50 52 51 50 50 51
15 20 12 11 10 6 6 5 6 4 4 5 5 2 2 2 6 5 2 10 15 18 19 17 15 14 13 11 9 5 4 7 13 18 23 29 36 43 49 54 56 51 37 36 42 48 50 49 50 50 51 48 46 46
11 10 13 16 7 6 8 9 7 2 6 5 2 2 3 8 5 3 11 17 21 21 19 17 16 13 11 6 4 10 16 22 27 32 38 40 38 37 38 44 46 42 41 41 41 43 47 48 48 47 47 45 47 52
11 17 7 14 10 13 6 4 6 6 3 2 2 6 6 4 4 11 12 24 24 21 19 17 12 6 6 13 20 25 29 34 36 36 34 29 26 27 28 31 35 37 39 39 39 40 41 43 45 47 52 58 58 57
12 20 9 10 8 13 13 7 4 5 3 3 2 4 4 6 16 26 30 26 24 21 15 9 10 18 23 25 27 27 30 32 33 32 32 34 32 26 28 31 33 34 35 37 35 35 39 40 44 50 55 58 52 47
15 22 6 7 8 8 8 8 7 9 9 8 9 16 20 21 25 28 27 25 20 14 11 15 21 26 29 30 26 19 19 25 24 27 34 38 41 39 39 39 37 36 36 38 41 42 39 39 41 43 46 47 47 48
16 13 6 10 8 7 9 12 16 16 14 17 21 22 18 16 22 21 21 17 13 10 10 22 31 40 39 34 34 33 24 21 26 31 34 39 40 41 41 39 38 39 40 43 46 48 49 49 48 49 49 49 48 48
15 12 5 5 4 7 9 6 7 8 8 8 8 9 12 9 8 10 14 12 8 5 14 27 40 46 43 36 31 32 32 30 32 33 35 37 39 41 42 42 42 43 46 49 50 50 49 49 50 50 52 51 51 51
7 11 10 6 5 4 10 7 7 6 8 6 7 5 5 5 7 12 18 9 7 14 24 33 42 46 43 37 33 25 27 32 33 34 35 38 41 42 42 42 43 46 49 51 51 49 48 48 50 51 52 53 53 53
Wind_Direction_500mb
13 10 10 5 334 284 262 264 257 226 211 223 225 216 210 206 202 212 212 215 209 234 241 221 211 171 159 169 157 140 119 184 165 197 199 183 212 199 180 151 173 171 171 191 198 221 256 140 129 199 84 70 118 113
10 11 10 8 8 353 290 249 254 242 217 231 224 217 207 200 201 212 208 208 213 207 242 237 244 227 219 208 172 171 121 155 172 179 200 145 172 158 184 217 190 214 222 177 194 206 114 185 78 181 159 153 146 143
5 9 9 11 9 8 8 304 230 227 226 229 205 202 199 197 207 215 213 204 192 203 243 237 239 229 223 214 211 157 213 172 185 152 146 159 207 168 179 224 183 221 182 219 162 180 204 188 198 181 165 171 172 188
360 2 7 9 13 12 14 27 65 179 189 176 186 188 192 194 197 213 218 206 201 171 224 207 224 229 227 219 214 211 199 178 165 168 142 171 208 207 180 64 218 106 153 171 247 195 126 213 214 216 202 204 219 239
349 353 358 5 9 17 16 17 36 54 91 138 167 185 194 200 200 209 216 224 217 190 183 175 199 207 212 226 229 221 211 185 179 153 163 208 131 157 117 43 224 186 172 194 233 150 191 127 198 203 208 210 219 224
338 342 347 353 0 4 12 28 20 39 87 130 170 190 206 200 195 201 205 215 208 205 202 189 201 208 210 215 219 206 214 190 181 176 179 219 200 180 215 250 264 198 201 220 188 174 165 162 169 180 187 189 191 195
322 326 331 336 344 351 356 358 3 31 70 90 140 207 198 200 211 204 202 204 204 213 189 170 190 195 191 192 188 193 199 182 182 189 199 186 188 178 228 244 151 195 209 215 212 183 144 175 176 178 191 193 198 210
308 307 311 316 320 324 333 329 346 344 292 258 215 156 137 135 160 144 119 152 187 178 171 183 125 163 172 161 143 186 171 189 202 200 182 180 135 193 240 107 159 173 174 177 197 204 204 185 181 179 192 196 200 214
289 288 289 294 300 299 297 288 283 267 262 150 172 184 182 231 180 172 160 192 184 168 159 173 167 175 169 136 134 155 167 175 183 211 185 169 166 213 143 153 164 168 175 164 167 164 163 168 169 175 183 190 201 209
287 283 279 278 274 279 274 271 254 234 224 214 207 174 168 168 158 171 163 138 169 201 193 206 149 143 169 163 141 132 180 202 192 178 139 216 211 99 86 134 164 168 166 161 150 150 167 172 176 177 184 193 205 214
284 280 286 292 289 279 256 255 241 229 223 208 209 202 154 154 154 153 150 181 137 226 206 173 194 141 176 156 142 202 185 165 233 153 207 204 214 111 136 133 142 151 159 170 175 177 184 193 191 192 192 194 201 214
283 289 293 295 295 292 297 237 237 224 219 215 181 158 151 183 170 181 173 119 216 218 159 177 132 105 132 142 151 178 194 170 226 116 206 228 85 134 143 148 149 155 163 173 175 174 173 176 181 187 196 206 215 227
293 291 289 287 288 286 285 269 227 234 213 196 187 163 172 168 194 197 184 187 203 167 166 153 118 108 115 127 88 175 205 189 133 186 226 44 131 148 159 156 153 153 153 153 153 157 160 168 177 196 213 225 236 247
292 290 288 280 279 277 287 276 231 213 199 182 165 184 208 173 224 184 172 122 132 121 138 124 100 97 93 107 71 152 62 218 190 223 220 85 153 155 152 147 147 148 151 155 158 166 176 187 199 215 233 248 256 261
293 291 285 281 276 274 272 276 219 207 197 204 163 185 177 111 88 129 129 117 121 144 134 111 90 105 77 107 43 117 141 213 235 245 72 124 151 150 149 148 149 153 160 166 172 187 206 218 227 240 248 250 254 261
285 283 277 280 274 275 256 151 177 233 99 61 41 117 81 126 97 124 133 118 136 141 115 91 115 123 93 82 165 192 180 209 137 76 115 146 149 150 152 153 157 166 178 189 206 225 242 252 253 252 249 249 250 259
274 282 286 286 246 134 176 180 143 111 76 64 39 63 49 69 92 101 94 156 154 148 137 144 146 118 123 134 183 202 210 69 87 111 125 142 145 145 149 155 170 190 212 238 257 264 266 265 263 261 257 256 259 267
205 256 295 209 188 140 123 90 86 73 68 48 45 45 63 75 90 109 104 125 125 78 56 82 117 169 175 174 170 110 104 110 112 122 135 141 145 150 161 180 206 237 260 269 271 271 269 269 266 263 260 264 269 276
90 113 129 109 132 114 77 48 50 84 65 70 79 64 81 84 67 75 96 111 101 103 97 51 129 117 105 52 82 121 129 128 135 137 141 148 158 180 214 239 256 268 276 278 276 271 271 269 267 269 276 280 283 287
54 200 173 152 167 96 76 47 56 75 78 85 78 60 67 75 72 59 74 89 88 61 47 39 43 30 38 100 120 126 128 129 134 135 148 178 199 215 237 249 257 278 287 288 286 285 286 283 283 285 285 286 288 291
56 63 74 170 77 67 79 69 62 72 91 86 97 74 79 67 53 48 41 48 58 39 76 63 91 101 105 109 117 119 122 128 135 136 146 160 188 199 210 232 284 301 302 301 298 299 296 295 294 292 290 289 290 291
52 43 50 58 79 71 72 55 90 92 83 94 60 55 51 47 37 22 42 47 56 34 103 122 116 113 113 117 117 112 108 108 111 112 112 119 139 196 251 284 301 308 311 312 310 307 306 304 301 298 295 295 294 294
16 37 59 50 79 56 57 58 73 46 79 67 69 70 44 59 37 48 75 61 70 80 115 121 123 122 117 113 109 107 105 102 99 97 98 102 84 305 305 309 313 315 314 312 308 307 307 306 303 301 301 301 301 301
114 65 42 46 44 74 65 43 59 66 66 51 60 83 50 17 13 69 79 71 104 127 127 126 125 117 114 114 113 110 105 99 87 68 15 338 326 316 309 309 308 307 310 308 306 305 304 304 304 305 307 306 304 304
99 14 30 27 30 48 50 39 25 60 75 28 91 101 84 6 79 61 65 115 134 134 132 127 121 120 123 121 115 108 92 62 17 344 327 317 311 307 304 303 303 304 309 306 306 306 306 306 305 307 308 309 310 310
67 11 36 359 11 40 14 76 46 81 107 87 60 87 43 75 69 71 88 141 135 136 133 127 122 119 115 110 104 84 23 338 320 313 311 308 306 305 305 306 309 313 317 307 304 304 305 307 307 309 310 313 313 312
55 6 22 34 43 70 88 73 79 58 71 78 105 115 82 71 85 97 130 137 137 137 133 126 120 114 105 88 1 323 315 311 309 309 310 310 308 305 303 305 308 313 309 307 306 306 306 308 309 310 310 311 313 313
63 28 48 357 37 38 104 64 40 52 64 53 89 53 99 107 131 150 145 147 141 134 125 117 105 71 345 320 313 310 307 307 308 311 314 318 320 315 312 311 311 312 312 312 313 312 311 310 312 317 318 318 314 310
35 357 9 27 53 49 41 34 52 36 48 35 32 103 104 88 128 134 139 137 133 126 111 70 6 335 323 321 318 316 314 313 316 318 320 324 329 335 327 323 320 320 318 318 320 317 311 311 309 297 292 296 303 308
4 5 32 45 59 32 8 36 55 63 61 77 93 104 93 99 119 128 130 130 124 109 70 29 10 358 346 338 332 331 315 311 316 317 318 321 323 327 328 325 323 322 320 319 321 324 325 323 323 324 322 321 320 319
351 358 57 54 80 45 53 74 70 67 71 75 89 96 106 105 104 120 129 128 122 107 49 23 11 360 352 345 336 333 338 328 325 323 318 317 319 322 321 320 319 319 319 321 324 327 327 325 323 323 323 323 323 322
6 27 39 82 87 56 41 43 54 70 64 65 64 98 110 97 100 140 135 128 117 35 358 354 353 353 346 342 334 325 322 323 323 320 317 316 318 322 322 321 321 321 322 321 320 318 317 317 318 320 320 321 321 321
16 31 54 76 73 57 18 35 56 79 60 63 59 83 70 103 133 161 162 144 40 356 342 337 339 340 339 334 330 323 316 319 320 319 318 318 319 319 320 318 317 317 316 315 316 316 316 316 316 317 318 317 317 317
Wind_Speed_850mb
76 75 77 76 53 46 50 52 52 94 123 87 87 92 90 85 83 92 84 64 52 32 23 30 30 17 22 22 13 27 17 7 8 13 12 11 11 15 8 14 17 22 24 13 15 16 23 31 18 14 5 10 17 19
73 76 79 77 79 50 39 58 60 76 114 87 101 93 87 86 81 83 63 60 66 33 15 38 38 35 41 42 33 53 1 17 26 10 10 6 6 7 5 10 14 12 10 15 24 16 6 41 8 17 15 18 14 14
67 67 70 76 74 75 65 25 60 68 107 87 111 86 80 77 70 89 70 60 52 30 21 35 29 45 39 29 29 24 13 20 20 12 12 4 8 10 12 12 10 12 6 5 6 10 13 26 20 18 17 18 17 13
63 63 62 63 66 68 66 61 29 32 70 87 84 63 67 70 72 59 64 57 57 19 9 14 44 45 31 41 36 31 18 39 25 22 7 5 5 13 5 3 10 4 24 13 8 7 5 16 28 26 20 15 14 12
55 56 57 54 50 52 54 48 38 32 26 31 38 44 49 47 54 51 50 55 62 36 7 5 17 30 39 52 49 41 25 27 22 9 5 7 7 7 3 0 10 18 11 12 10 11 4 9 29 27 23 19 14 11
54 49 47 47 43 37 33 31 30 17 13 12 16 25 29 40 49 46 22 52 56 66 8 8 10 22 40 34 47 59 44 34 24 16 9 12 13 14 6 12 6 38 29 29 6 11 11 19 22 22 21 17 15 15
50 51 44 39 36 31 26 22 13 7 14 17 8 15 22 33 40 31 10 11 52 63 12 8 7 10 26 28 26 28 36 15 21 14 17 13 12 28 5 15 16 22 26 21 17 18 13 19 14 21 21 19 15 13
51 46 45 41 32 26 18 13 13 8 6 7 4 8 12 15 19 11 13 11 35 30 15 5 5 6 22 11 9 19 17 23 16 10 9 8 15 15 12 7 22 24 22 18 18 21 15 21 22 21 17 14 13 11
53 46 42 41 37 30 24 15 11 8 5 3 10 16 14 5 2 8 16 18 23 9 7 5 10 7 22 7 10 13 16 7 15 7 10 18 8 12 1 10 23 23 15 22 19 15 16 17 18 18 17 15 14 12
56 47 48 41 38 36 30 25 19 13 13 17 22 10 8 13 23 16 11 3 3 5 6 5 9 6 13 15 8 9 6 3 7 5 13 8 7 11 7 14 22 19 19 22 24 16 19 19 20 20 20 19 18 16
52 35 40 40 36 38 37 35 27 22 24 20 13 7 11 27 16 11 6 4 2 4 9 5 16 9 15 6 6 7 5 5 5 6 8 8 7 8 15 18 21 25 26 25 18 16 21 18 21 20 19 17 13 11
34 31 35 39 47 50 44 39 41 36 28 20 17 18 19 12 6 7 7 3 8 8 7 6 6 7 10 9 5 8 7 6 7 4 5 6 5 18 20 21 22 21 20 19 16 15 16 17 17 15 13 12 12 12
35 39 44 49 47 49 52 40 46 47 42 36 15 11 13 10 12 12 14 8 6 11 12 10 6 7 7 6 7 4 10 5 6 6 6 3 13 17 21 22 21 20 18 16 16 14 13 13 12 12 12 12 12 12
43 40 44 45 46 47 54 54 52 47 46 23 19 15 11 9 9 6 5 7 7 9 20 17 11 3 4 4 2 5 4 3 5 6 6 4 18 24 24 22 19 19 17 15 14 13 12 11 10 10 11 13 14 14
48 48 47 49 46 46 55 61 55 49 25 13 14 14 9 9 9 8 15 15 11 23 21 15 10 5 4 6 4 7 5 6 6 2 4 11 24 28 25 21 17 15 13 11 9 8 9 9 11 12 14 15 15 14
49 47 44 42 40 39 29 21 20 10 6 7 9 9 8 8 6 5 7 12 23 26 16 9 5 5 4 3 7 8 8 9 5 5 9 25 31 26 23 19 15 11 9 8 8 8 10 11 13 14 14 15 15 16
35 33 25 17 21 19 24 14 9 9 11 9 7 17 14 16 13 8 6 8 26 13 5 5 8 4 7 5 6 3 2 5 9 13 19 24 28 24 19 13 10 8 7 7 9 11 13 15 16 17 17 18 19 21
12 15 14 27 13 13 15 7 9 10 14 15 3 9 15 13 9 16 10 13 9 5 4 5 11 6 8 12 7 6 9 13 18 20 23 23 19 15 11 8 6 6 7 9 12 14 16 17 19 19 21 24 27 30
14 6 20 18 15 9 7 10 11 11 13 12 11 14 17 19 22 18 17 13 16 17 13 4 3 3 4 6 7 14 19 15 17 22 20 15 10 6 5 5 5 7 8 10 12 15 18 20 22 25 29 34 38 40
9 3 3 4 10 7 10 13 12 13 8 6 10 9 11 13 15 22 23 20 17 10 16 9 6 6 7 9 17 24 23 27 25 20 12 8 7 5 5 5 5 6 8 11 14 16 19 22 26 31 37 42 47 52
22 19 11 4 9 17 15 10 14 10 11 11 11 7 9 14 13 16 17 16 15 11 7 8 12 21 24 25 24 25 23 19 15 10 11 6 7 7 6 4 6 10 13 16 18 22 27 32 35 41 48 56 61 67
14 13 9 13 11 11 16 16 13 9 8 8 8 10 11 8 11 13 13 18 11 7 8 17 21 23 21 20 19 19 19 17 15 14 11 9 5 4 5 8 11 13 15 19 26 33 39 44 50 54 59 64 65 67
3 6 10 12 11 13 7 10 7 8 5 5 5 7 7 6 5 8 10 9 9 10 19 22 22 21 21 21 22 22 21 18 15 12 8 4 1 2 6 11 16 21 29 35 42 50 56 56 56 55 54 54 54 56
6 9 13 13 17 6 6 10 9 8 8 6 5 6 5 6 7 8 7 6 7 12 17 21 23 22 21 19 17 15 12 9 7 4 3 5 8 12 17 24 31 37 43 50 55 56 54 48 46 49 50 52 53 55
8 23 14 12 16 7 9 6 6 6 6 5 4 5 3 5 4 6 4 5 10 15 19 20 18 17 17 14 11 8 6 4 4 6 10 15 22 30 37 42 48 51 49 50 47 45 47 48 50 52 51 50 50 51
15 20 12 11 10 6 6 5 6 4 4 5 5 2 2 2 6 5 2 10 15 18 19 17 15 14 13 11 9 5 4 7 13 18 23 29 36 43 49 54 56 51 37 36 42 48 50 49 50 50 51 48 46 46
11 10 13 16 7 6 8 9 7 2 6 5 2 2 3 8 5 3 11 17 21 21 19 17 16 13 11 6 4 10 16 22 27 32 38 40 38 37 38 44 46 42 41 41 41 43 47 48 48 47 47 45 47 52
11 17 7 14 10 13 6 4 6 6 3 2 2 6 6 4 4 11 12 24 24 21 19 17 12 6 6 13 20 25 29 34 36 36 34 29 26 27 28 31 35 37 39 39 39 40 41 43 45 47 52 58 58 57
12 20 9 10 8 13 13 7 4 5 3 3 2 4 4 6 16 26 30 26 24 21 15 9 10 18 23 25 27 27 30 32 33 32 32 34 32 26 28 31 33 34 35 37 35 35 39 40 44 50 55 58 52 47
15 22 6 7 8 8 8 8 7 9 9 8 9 16 20 21 25 28 27 25 20 14 11 15 21 26 29 30 26 19 19 25 24 27 34 38 41 39 39 39 37 36 36 38 41 42 39 39 41 43 46 47 47 48
16 13 6 10 8 7 9 12 16 16 14 17 21 22 18 16 22 21 21 17 13 10 10 22 31 40 39 34 34 33 24 21 26 31 34 39 40 41 41 39 38 39 40 43 46 48 49 49 48 49 49 49 48 48
15 12 5 5 4 7 9 6 7 8 8 8 8 9 12 9 8 10 14 12 8 5 14 27 40 46 43 36 31 32 32 30 32 33 35 37 39 41 42 42 42 43 46 49 50 50 49 49 50 50 52 51 51 51
7 11 10 6 5 4 10 7 7 6 8 6 7 5 5 5 7 12 18 9 7 14 24 33 42 46 43 37 33 25 27 32 33 34 35 38 41 42 42 42 43 46 49 51 51 49 48 48 50 51 52 53 53 53
Wind_Direction_850mb
13 10 10 5 334 284 262 264 257 226 211 223 225 216 210 206 202 212 212 215 209 234 241 221 211 171 159 169 157 140 119 184 165 197 199 183 212 199 180 151 173 171 171 191 198 221 256 140 129 199 84 70 118 113
10 11 10 8 8 353 290 249 254 242 217 231 224 217 207 200 201 212 208 208 213 207 242 237 244 227 219 208 172 171 121 155 172 179 200 145 172 158 184 217 190 214 222 177 194 206 114 185 78 181 159 153 146 143
5 9 9 11 9 8 8 304 230 227 226 229 205 202 199 197 207 215 213 204 192 203 243 237 239 229 223 214 211 157 213 172 185 152 146 159 207 168 179 224 183 221 182 219 162 180 204 188 198 181 165 171 172 188
360 2 7 9 13 12 14 27 65 179 189 176 186 188 192 194 197 213 218 206 201 171 224 207 224 229 227 219 214 211 199 178 165 168 142 171 208 207 180 64 218 106 153 171 247 195 126 213 214 216 202 204 219 239
349 353 358 5 9 17 16 17 36 54 91 138 167 185 194 200 200 209 216 224 217 190 183 175 199 207 212 226 229 221 211 185 179 153 163 208 131 157 117 43 224 186 172 194 233 150 191 127 198 203 208 210 219 224
338 342 347 353 0 4 12 28 20 39 87 130 170 190 206 200 195 201 205 215 208 205 202 189 201 208 210 215 219 206 214 190 181 176 179 219 200 180 215 250 264 198 201 220 188 174 165 162 169 180 187 189 191 195
322 326 331 336 344 351 356 358 3 31 70 90 140 207 198 200 211 204 202 204 204 213 189 170 190 195 191 192 188 193 199 182 182 189 199 186 188 178 228 244 151 195 209 215 212 183 144 175 176 178 191 193 198 210
308 307 311 316 320 324 333 329 346 344 292 258 215 156 137 135 160 144 119 152 187 178 171 183 125 163 172 161 143 186 171 189 202 200 182 180 135 193 240 107 159 173 174 177 197 204 204 185 181 179 192 196 200 214
289 288 289 294 300 299 297 288 283 267 262 150 172 184 182 231 180 172 160 192 184 168 159 173 167 175 169 136 134 155 167 175 183 211 185 169 166 213 143 153 164 168 175 164 167 164 163 168 169 175 183 190 201 209
287 283 279 278 274 279 274 271 254 234 224 214 207 174 168 168 158 171 163 138 169 201 193 206 149 143 169 163 141 132 180 202 192 178 139 216 211 99 86 134 164 168 166 161 150 150 167 172 176 177 184 193 205 214
284 280 286 292 289 279 256 255 241 229 223 208 209 202 154 154 154 153 150 181 137 226 206 173 194 141 176 156 142 202 185 165 233 153 207 204 214 111 136 133 142 151 159 170 175 177 184 193 191 192 192 194 201 214
283 289 293 295 295 292 297 237 237 224 219 215 181 158 151 183 170 181 173 119 216 218 159 177 132 105 132 142 151 178 194 170 226 116 206 228 85 134 143 148 149 155 163 173 175 174 173 176 181 187 196 206 215 227
293 291 289 287 288 286 285 269 227 234 213 196 187 163 172 168 194 197 184 187 203 167 166 153 118 108 115 127 88 175 205 189 133 186 226 44 131 148 159 156 153 153 153 153 153 157 160 168 177 196 213 225 236 247
292 290 288 280 279 277 287 276 231 213 199 182 165 184 208 173 224 184 172 122 132 121 138 124 100 97 93 107 71 152 62 218 190 223 220 85 153 155 152 147 147 148 151 155 158 166 176 187 199 215 233 248 256 261
293 291 285 281 276 274 272 276 219 207 197 204 163 185 177 111 88 129 129 117 121 144 134 111 90 105 77 107 43 117 141 213 235 245 72 124 151 150 149 148 149 153 160 166 172 187 206 218 227 240 248 250 254 261
285 283 277 280 274 275 256 151 177 233 99 61 41 117 81 126 97 124 133 118 136 141 115 91 115 123 93 82 165 192 180 209 137 76 115 146 149 150 152 153 157 166 178 189 206 225 242 252 253 252 249 249 250 259
274 282 286 286 246 134 176 180 143 111 76 64 39 63 49 69 92 101 94 156 154 148 137 144 146 118 123 134 183 202 210 69 87 111 125 142 145 145 149 155 170 190 212 238 257 264 266 265 263 261 257 256 259 267
205 256 295 209 188 140 123 90 86 73 68 48 45 45 63 75 90 109 104 125 125 78 56 82 117 169 175 174 170 110 104 110 112 122 135 141 145 150 161 180 206 237 260 269 271 271 269 269 266 263 260 264 269 276
90 113 129 109 132 114 77 48 50 84 65 70 79 64 81 84 67 75 96 111 101 103 97 51 129 117 105 52 82 121 129 128 135 137 141 148 158 180 214 239 256 268 276 278 276 271 271 269 267 269 276 280 283 287
54 200 173 152 167 96 76 47 56 75 78 85 78 60 67 75 72 59 74 89 88 61 47 39 43 30 38 100 120 126 128 129 134 135 148 178 199 215 237 249 257 278 287 288 286 285 286 283 283 285 285 286 288 291
56 63 74 170 77 67 79 69 62 72 91 86 97 74 79 67 53 48 41 48 58 39 76 63 91 101 105 109 117 119 122 128 135 136 146 160 188 199 210 232 284 301 302 301 298 299 296 295 294 292 290 289 290 291
52 43 50 58 79 71 72 55 90 92 83 94 60 55 51 47 37 22 42 47 56 34 103 122 116 113 113 117 117 112 108 108 111 112 112 119 139 196 251 284 301 308 311 312 310 307 306 304 301 298 295 295 294 294
16 37 59 50 79 56 57 58 73 46 79 67 69 70 44 59 37 48 75 61 70 80 115 121 123 122 117 113 109 107 105 102 99 97 98 102 84 305 305 309 313 315 314 312 308 307 307 306 303 301 301 301 301 301
114 65 42 46 44 74 65 43 59 66 66 51 60 83 50 17 13 69 79 71 104 127 127 126 125 117 114 114 113 110 105 99 87 68 15 338 326 316 309 309 308 307 310 308 306 305 304 304 304 305 307 306 304 304
99 14 30 27 30 48 50 39 25 60 75 28 91 101 84 6 79 61 65 115 134 134 132 127 121 120 123 121 115 108 92 62 17 344 327 317 311 307 304 303 303 304 309 306 306 306 306 306 305 307 308 309 310 310
67 11 36 359 11 40 14 76 46 81 107 87 60 87 43 75 69 71 88 141 135 136 133 127 122 119 115 110 104 84 23 338 320 313 311 308 306 305 305 306 309 313 317 307 304 304 305 307 307 309 310 313 313 312
55 6 22 34 43 70 88 73 79 58 71 78 105 115 82 71 85 97 130 137 137 137 133 126 120 114 105 88 1 323 315 311 309 309 310 310 308 305 303 305 308 313 309 307 306 306 306 308 309 310 310 311 313 313
63 28 48 357 37 38 104 64 40 52 64 53 89 53 99 107 131 150 145 147 141 134 125 117 105 71 345 320 313 310 307 307 308 311 314 318 320 315 312 311 311 312 312 312 313 312 311 310 312 317 318 318 314 310
35 357 9 27 53 49 41 34 52 36 48 35 32 103 104 88 128 134 139 137 133 126 111 70 6 335 323 321 318 316 314 313 316 318 320 324 329 335 327 323 320 320 318 318 320 317 311 311 309 297 292 296 303 308
4 5 32 45 59 32 8 36 55 63 61 77 93 104 93 99 119 128 130 130 124 109 70 29 10 358 346 338 332 331 315 311 316 317 318 321 323 327 328 325 323 322 320 319 321 324 325 323 323 324 322 321 320 319
351 358 57 54 80 45 53 74 70 67 71 75 89 96 106 105 104 120 129 128 122 107 49 23 11 360 352 345 336 333 338 328 325 323 318 317 319 322 321 320 319 319 319 321 324 327 327 325 323 323 323 323 323 322
6 27 39 82 87 56 41 43 54 70 64 65 64 98 110 97 100 140 135 128 117 35 358 354 353 353 346 342 334 325 322 323 323 320 317 316 318 322 322 321 321 321 322 321 320 318 317 317 318 320 320 321 321 321
16 31 54 76 73 57 18 35 56 79 60 63 59 83 70 103 133 161 162 144 40 356 342 337 339 340 339 334 330 323 316 319 320 319 318 318 319 319 320 318 317 317 316 315 316 316 316 316 316 317 318 317 317 317